Погода в Больших Горах

Россия / Республика Карелия     61°18′19″N   32°28′14″E
темп.,
°C
ветер,
м/с
пор.,
м/с
влажн.,
%
обл.,
%
осадки,
мм/ч
давл.,
гПа
погр.,
м
27 октября, ср
ср2700:00+6юз51196100 0.4 1006568
03:00+6юз41096100 0.9 1004528
06:00+6юз41097100 0.9 1002472
09:00+6зюз3898100 5.9 1001464
12:00+8з489042 0.2 1002510
15:00+7з4108944 0.4 1003707
18:00+6зюз3891100 0.0 1004329
21:00+6юз2693100 0.0 1003194
28 октября, чт
чт2800:00+6юз2496100 0.1 1003121
03:00+6зюз2496100 0.6 1003201
06:00+6зсз1496100 0.9 1005171
09:00+5ссв3694100 1.6 1009381
12:00+3всв2596100 0.1 1014345
15:00+4в238699 0.1 1016388
18:00+4юв2590100 0.0 1019289
21:00+3ююв3894100 0.0 1019324
29 октября, пт
пт2900:00+4ююв41196100 0.0 1017419
03:00+6ю61495100 2.6 1014614
06:00+7ююз71695100 2.8 1012777
09:00+9юз61496100 2.9 1010712
12:00+9зюз61287100 0.0 1011752
15:00+9юз5148816 0.0 1012662
18:00+9зюз6168992 0.0 1012626
21:00+9зюз6178897 0.0 1013665
30 октября, сб
сб3000:00+9зюз515895 0.0 1014624
03:00+8зюз4149147 0.0 1015599
06:00+7зюз4119452 0.0 1015477
09:00+7юз399667 0.0 1016428
12:00+8юз499179 0.0 1017479
15:00+8юз389160 0.0 1017463
18:00+6ююз289698 0.0 1017202
21:00+7ююз2996100 0.0 1017216
31 октября, вс
вс3100:00+7ююз31098100 0.0 1016299
03:00+7юз4119698 0.0 1016443
06:00+7юз4119581 0.0 1015506
09:00+7юз4109470 0.0 1016463
12:00+8юз498942 0.0 1017418
15:00+7ююз388970 0.0 1017332
18:00+6ю3992100 0.0 1016258
21:00+7ю31094100 0.0 1016288